Location: Unspecified
(43.0000°N, 0.0000°E)
Time: 22:18:55
(UTC+00:00)

PicSat - Pass Details

Date: 18 July 2019
Orbit: 486 x 500 km, 97.5° (Epoch: 25 August)

Event Time Altitude Azimuth Distance (km) Brightness Sun altitude
Exits shadow 22:49:14 11° 256° (WSW) 1,634 ? -23.6°
Maximum altitude 22:50:02 12° 269° (W) 1,596 ? -23.7°
Drops below altitude 10° 22:51:23 10° 291° (WNW) 1,699 ? -23.8°
Sets 22:54:45 0° 325° (NW) 2,586 ? -24.0°
